Regional Weather Roundup
Issued by NWS

Home | Current Version | Previous Version | Text Only | Print | Product List | Glossary On
Versions: 1 2 3 4 5 6 7 8 9 10 11 12 13 14 15 16 17 18 19 20 21 22 23 24 25 26 27 28 29 30 31 32 33 34 35 36 37 38 39 40 41 42 43 44 45 46 47 48 49 50
000
ASUS44 KFWD 211910
RWRTX
NORTH TEXAS HOURLY WEATHER ROUNDUP
NATIONAL WEATHER SERVICE FORT WORTH TX
200 PM CDT SAT APR 21 2018

NOTE: "FAIR" INDICATES FEW OR NO CLOUDS BELOW 12,000 FEET WITH NO
SIGNIFICANT WEATHER AND/OR OBSTRUCTIONS TO VISIBILITY.

TXZ118-119-212000-
DALLAS/FORT WORTH METROPLEX

CITY           SKY/WX    TMP DP  RH WIND       PRES   REMARKS
DFW AIRPORT    DRIZZLE   60  59  96 S10       29.93F FOG
DALLAS LOVE    LGT RAIN  62  60  93 SE13      29.94F
FTW MEACHAM    CLOUDY    63  60  90 S9        29.93F
DAL-EXECUTIVE  CLOUDY    62  60  93 S7        29.94F FOG
FTW-ALLIANCE   CLOUDY    60  59  96 VRB5      29.94F FOG
FTW-NAS-JRB    CLOUDY    63  59  87 S15       29.94F
FTW-SPINKS     CLOUDY    63  61  94 S10G16    29.95F FOG
ARLINGTON      CLOUDY    61  61 100 S14       29.94F
GRAND PRAIRIE  LGT RAIN  61  61 100 SE10      29.96F
ADDISON        LGT RAIN  61  57  88 SE12      29.96F
MESQUITE       LGT RAIN  61  57  88 SE7       29.97F FOG
LANCASTER      DRIZZLE   62  60  94 S7        29.96F
$$

TXZ091>094-102>105-117-120-121-131>134-212000-
NORTH CENTRAL TEXAS

CITY           SKY/WX    TMP DP  RH WIND       PRES   REMARKS
SHRMAN/DENISON DRIZZLE   53  52  97 E10       29.98F
GAINESVILLE    LGT RAIN  51  50  96 NE6       29.99F
BOWIE          CLOUDY    53  53  98 E6        29.95S FOG
BRIDGEPORT     CLOUDY    56  56 100 NE3       29.97S FOG
DECATUR        CLOUDY    55  55  97 CALM      29.95F FOG
DENTON         LGT RAIN  58  57  97 E5        29.95F FOG
MCKINNEY       LGT RAIN  59  59 100 SE10      29.96F FOG
BONHAM         RAIN      54  54  98 NE7       30.00F FOG
GREENVILLE     CLOUDY    63  61  94 S5        29.99S
ROCKWALL       CLOUDY    60  60 100 MISG      29.97F
TERRELL        CLOUDY    62  58  86 S7        29.97S
WAXAHACHIE     DRIZZLE   61  61 100 S9        29.96F
CLEBURNE       PTSUNNY   61  61 100 S12G18    29.96S
GRANBURY       CLOUDY    67  59  77 SE12      29.93F
$$

TXZ083>090-098>101-113>116-127>130-139>142-154-155-212000-
WESTERN NORTH TEXAS

CITY           SKY/WX    TMP DP  RH WIND       PRES   REMARKS
WICHITA FALLS  LGT RAIN  53  51  93 E10       29.96R FOG
WF-KICKAPOO    CLOUDY    53  52  97 NE9       29.98R FOG
VERNON         CLOUDY    54  53  96 NE8       30.01R
ABILENE        FAIR      82  39  21 W24G31    29.84F
ABILENE-DYESS  FAIR      80  40  23 W21G28    29.85S
GRAHAM           N/A     68  61  77 SE7       29.88F
BRECKENRIDGE   PTSUNNY   79  52  39 S12       29.85F
CISCO          FAIR      79  55  44 S18G25    29.87F
EASTLAND       PTSUNNY   73  58  58 S14G25    29.87F
RANGER         FAIR      72  59  63 S17       29.88F
MINERAL WELLS  CLOUDY    67  59  75 S16G23    29.89F
STEPHENVILLE   CLOUDY    68  58  69 S10G21    29.94F
COMANCHE       FAIR      74  60  61 S10G20    29.91F
BROWNWOOD      FAIR      77  57  50 S14       29.88F
COLEMAN        FAIR      83  29  14 W10G26    29.87F
BRADY          PTSUNNY   77  48  36 SW17G23   29.91F
$$

TXZ143>147-156>162-174-175-212000-
CENTRAL TEXAS

CITY           SKY/WX    TMP DP  RH WIND       PRES   REMARKS
WACO           CLOUDY    63  61  93 S7        29.95F
WACO-TSTC      RAIN      61  63 100 S9        29.95F
WACO-MCGREGOR  CLOUDY    64  62  93 S9        29.95S
HILLSBORO      RAIN      62  62 100 S7        29.95F
CORSICANA      LGT RAIN  62  60  93 SE5       29.96F FOG
MEXIA          CLOUDY    64  60  86 SE6       29.94F
HEARNE         CLOUDY    68  63  83 SE10G18   29.97S
CAMERON        CLOUDY    68  63  83 S7        29.95F
TEMPLE         LGT RAIN  64  63  96 S8        29.95F
KILLEEN        CLOUDY    63  59  88 S7        29.95F FOG
KILLEEN-SKYLRK LGT RAIN  63  63 100 S7        29.95F FOG
FORT HOOD      CLOUDY    61  61 100 S10       29.91F
GATESVILLE     FAIR      64  63  94 S8G15     29.96F
HAMILTON       CLOUDY    63  63  99 S8        29.97R
LAMPASAS       CLOUDY    64  61  93 S5        29.94F
$$

TXZ095>097-106>112-122>126-135>138-148>153-164>167-212000-
EAST TEXAS

CITY           SKY/WX    TMP DP  RH WIND       PRES   REMARKS
PARIS          RAIN      57  54  88 E6        30.01F FOG
SULPHUR SPRNGS TSTM      60  58  92 SE3       30.02R
MOUNT PLEASANT PTSUNNY   64  53  67 SE6       30.01S
GILMER         PTSUNNY   65  53  65 SE5       29.99R
MINEOLA        TSTM      61  59  94 SW3       30.00R FOG
TYLER          HVY RAIN  64  57  78 W5        29.99R
LONGVIEW       FAIR      67  56  67 SE10      29.96F
MARSHALL       FAIR      67  52  58 SE8       30.01F
ATHENS         TSTM      61  59  94 CALM      29.96S
PALESTINE      LGT RAIN  65  61  85 SE3       29.98R
JACKSONVILLE   FAIR      66  58  75 S7        29.98R
HENDERSON      FAIR      68  56  65 SE14G22   29.97F
CENTER         FAIR      69  54  59 E12       30.01F
NACOGDOCHES      N/A     69  55  60 SE12      29.97F
LUFKIN         FAIR      75  61  61 SE14      29.98F
$$

SUPPLEMENTAL OBSERVATIONS (NWS FORT WORTH AREA)

CITY           SKY/WX    TMP DP  RH WIND       PRES   REMARKS
POSSUM KINGDOM   N/A    N/A N/A N/A S13         N/A
GRANBURY         N/A     66  57  72 SE15        N/A
MCGREGOR         N/A     64  61  88 S13         N/A
TEMPLE           N/A     66  61  82 S6          N/A
PALESTINE        N/A     66  61  82 S6          N/A
$$

SUPPLEMENTAL OBSERVATIONS (NWS NORMAN AREA)

CITY           SKY/WX    TMP DP  RH WIND       PRES   REMARKS
GOODLETT         N/A     54  49  83 NE14      29.99S
ODELL            N/A     54  53  94 NE9       30.01S
CROWELL          N/A     55  51  88 N12       29.99R
KNOX CITY        N/A     65  53  65 N15       29.95R
SEYMOUR          N/A     55  54  95 N10       29.95S
MILLERS CREEK    N/A     59  54  82 N13         N/A
$$

SUPPLEMENTAL OBSERVATIONS (NWS SAN ANGELO AREA)

CITY           SKY/WX    TMP DP  RH WIND       PRES   REMARKS
WEINERT          N/A     62  54  73 NE13      29.93S
HASKELL          N/A     65  53  66 N23       29.91R
THROCKMORTON     N/A     69  59  71 N5        29.90F
STAMFORD         N/A     71  57  60 N12       29.88R
CLYDE            N/A     82  31  16 W18       29.87S
HAMBY            N/A     82  39  21 W21G31      N/A
IVIE RESERVOIR   N/A     84  27  12 SW17G26     N/A
COLORADO BEND    N/A     68  63  83 S5G18       N/A
$$

SUPPLEMENTAL OBSERVATIONS (NWS SHREVEPORT AREA)

CITY           SKY/WX    TMP DP  RH WIND       PRES   REMARKS
TEXARKANA        N/A     68  46  45 SE6G14      N/A
LINDEN           N/A     66  50  55 E6G15       N/A
LUFKIN           N/A    N/A N/A N/A MISG        N/A
$$

SUPPLEMENTAL OBSERVATIONS ARE A COLLECTION OF AUTOMATED INSTRUMENTS
THAT ARE MAINTAINED BY A VARIETY OF FEDERAL AND STATE AGENCIES.
CERTAIN ELEMENTS...SUCH AS HUMIDITY VALUES AND SUSTAINED WIND
SPEEDS...MAY BE APPROXIMATED.





USA.gov is the U.S. government's official web portal to all federal, state and local government web resources and services.